Location: Windsor
(43.2292°N, 89.3015°W)
Time: 09:10:05
(UTC+00:00)

Tiros 1 - Pass Details

Date: 04 June 2022
Orbit: 629 x 663 km, 48.4° (Epoch: 04 July)

Event Time Altitude Azimuth Distance (km) Brightness Sun altitude
Rises 06:06:31 0° 281° (WNW) 2,914 10.6 -24.3°
Reaches altitude 10° 06:08:56 10° 289° (WNW) 2,007 9.8 -24.3°
Maximum altitude 06:13:20 43° 1° (N) 887 8.3 -24.2°
Drops below altitude 10° 06:17:46 10° 74° (ENE) 2,018 9.9 -24.1°
Sets 06:20:12 0° 81° (E) 2,931 10.7 -24.1°
